FW6665 Weather Reports


time (UTC)temp
C
wind
direction
speed
KPH
gust
KPH
rain 1hr
cm
rain 24hr
cm
rain mn
cm
humidity
%
barometer
mb
20260509192205 14 103 1.6 6.4 0.00 0.00 0.00 52 1014.4
20260509191704 15 166 0.0 6.4 0.00 0.00 0.00 51 1014.4
20260509191205 15 168 0.0 6.4 0.00 0.00 0.00 50 1014.5
20260509190204 15 134 1.6 6.4 0.00 0.00 0.00 49 1014.4
20260509185704 15 133 1.6 6.4 0.00 0.00 0.00 49 1014.4
20260509185206 15 109 1.6 6.4 0.00 0.00 0.00 49 1014.4
20260509184705 16 106 0.0 4.8 0.00 0.00 0.00 48 1014.5
20260509184205 16 107 1.6 8.0 0.00 0.00 0.00 48 1014.4
20260509183705 16 103 1.6 8.0 0.00 0.00 0.00 49 1014.3
20260509183204 16 106 0.0 8.0 0.00 0.00 0.00 49 1014.3
20260509182709 16 106 1.6 4.8 0.00 0.00 0.00 48 1014.3
20260509181705 16 135 1.6 4.8 0.00 0.00 0.00 48 1014.3
20260509181205 16 130 1.6 4.8 0.00 0.00 0.00 48 1014.3
20260509180705 17 144 1.6 4.8 0.00 0.00 0.00 48 1014.3
20260509180204 17 142 1.6 6.4 0.00 0.00 0.00 47 1014.1
20260509175705 17 118 1.6 6.4 0.00 0.00 0.00 47 1014.0
20260509174205 17 97 1.6 9.7 0.00 0.00 0.00 47 1013.9
20260509173704 17 118 1.6 6.4 0.00 0.00 0.00 46 1014.0
20260509173214 17 128 3.2 4.8 0.00 0.00 0.00 46 1014.0
20260509172705 17 125 1.6 4.8 0.00 0.00 0.00 46 1014.0
20260509171704 17 89 1.6 8.0 0.00 0.00 0.00 46 1014.1
20260509171204 18 94 3.2 9.7 0.00 0.00 0.00 44 1014.1
20260509170705 18 164 1.6 9.7 0.00 0.00 0.00 44 1014.2
20260509170205 18 107 1.6 9.7 0.00 0.00 0.00 43 1014.2
20260509165704 18 140 1.6 8.0 0.00 0.00 0.00 42 1014.3
20260509165204 18 116 3.2 8.0 0.00 0.00 0.00 40 1014.3
20260509164705 19 162 1.6 8.0 0.00 0.00 0.00 41 1014.2
20260509164204 19 107 1.6 6.4 0.00 0.00 0.00 41 1014.1
20260509163714 19 83 3.2 4.8 0.00 0.00 0.00 41 1014.0
20260509162204 20 94 1.6 16.1 0.00 0.00 0.00 43 1014.1
20260509161204 20 42 3.2 16.1 0.00 0.00 0.00 42 1014.2
20260509160704 20 134 3.2 9.7 0.00 0.00 0.00 41 1014.3
20260509160204 20 141 3.2 8.0 0.00 0.00 0.00 42 1014.4
20260509155705 20 158 3.2 8.0 0.00 0.00 0.00 42 1014.3
20260509155204 20 113 1.6 11.3 0.00 0.00 0.00 42 1014.3
20260509154705 20 197 3.2 11.3 0.00 0.00 0.00 40 1014.3
20260509154204 20 128 1.6 11.3 0.00 0.00 0.00 41 1014.3
20260509153703 20 100 4.8 9.7 0.00 0.00 0.00 39 1014.3
20260509153204 20 113 1.6 9.7 0.00 0.00 0.00 40 1014.4
20260509152203 21 78 1.6 6.4 0.00 0.00 0.00 42 1014.5
20260509151705 21 142 1.6 6.4 0.00 0.00 0.00 44 1014.5
20260509151203 21 109 1.6 8.0 0.00 0.00 0.00 44 1014.4
20260509150205 20 85 1.6 14.5 0.00 0.00 0.00 45 1014.4
20260509145705 21 142 1.6 14.5 0.00 0.00 0.00 45 1014.3
20260509145204 21 111 1.6 8.0 0.00 0.00 0.00 44 1014.2
20260509144709 21 117 1.6 8.0 0.00 0.00 0.00 44 1014.3
20260509144205 21 144 1.6 9.7 0.00 0.00 0.00 44 1014.1
20260509143205 21 107 3.2 6.4 0.00 0.00 0.00 43 1013.9
20260509142704 21 127 3.2 6.4 0.00 0.00 0.00 41 1013.9
20260509142204 21 144 3.2 6.4 0.00 0.00 0.00 41 1013.9
20260509141705 21 133 3.2 6.4 0.00 0.00 0.00 41 1013.9
20260509141205 21 121 1.6 6.4 0.00 0.00 0.00 42 1014.0
20260509140705 21 173 1.6 6.4 0.00 0.00 0.00 44 1014.0
20260509140205 21 92 1.6 6.4 0.00 0.00 0.00 43 1014.0
20260509135704 21 97 3.2 6.4 0.00 0.00 0.00 42 1014.0
20260509135205 21 75 1.6 6.4 0.00 0.00 0.00 43 1014.1
20260509134704 21 87 1.6 6.4 0.00 0.00 0.00 43 1014.1
20260509134205 21 79 1.6 6.4 0.00 0.00 0.00 42 1014.0
20260509133704 21 110 3.2 16.1 0.00 0.00 0.00 42 1014.0
20260509133204 21 137 1.6 16.1 0.00 0.00 0.00 44 1014.0
20260509132704 21 99 1.6 16.1 0.00 0.00 0.00 44 1014.0
20260509132205 21 133 3.2 11.3 0.00 0.00 0.00 43 1014.1
20260509131704 21 116 1.6 14.5 0.00 0.00 0.00 45 1014.0
20260509131205 21 54 3.2 14.5 0.00 0.00 0.00 43 1014.1
20260509130704 21 133 1.6 14.5 0.00 0.00 0.00 42 1014.2
20260509130204 21 140 3.2 6.4 0.00 0.00 0.00 42 1014.2
20260509125704 21 125 3.2 8.0 0.00 0.00 0.00 44 1014.2
20260509125205 21 124 1.6 8.0 0.00 0.00 0.00 42 1014.4
20260509124705 21 151 1.6 8.0 0.00 0.00 0.00 45 1014.4
20260509124204 21 159 1.6 8.0 0.00 0.00 0.00 43 1014.5
20260509123705 21 121 3.2 6.4 0.00 0.00 0.00 45 1014.5
20260509123204 21 63 0.0 8.0 0.00 0.00 0.00 46 1014.5
20260509122204 20 79 3.2 8.0 0.00 0.00 0.00 46 1014.6
20260509121703 20 141 3.2 6.4 0.00 0.00 0.00 45 1014.7
20260509121204 20 68 1.6 4.8 0.00 0.00 0.00 45 1014.8
20260509120704 20 235 1.6 8.0 0.00 0.00 0.00 45 1014.8
20260509115704 20 107 1.6 8.0 0.00 0.00 0.00 47 1014.9
20260509115204 20 131 3.2 6.4 0.00 0.00 0.00 48 1014.9
20260509114714 20 148 1.6 6.4 0.00 0.00 0.00 47 1014.9
20260509114205 20 134 1.6 9.7 0.00 0.00 0.00 48 1014.9
20260509113710 20 134 1.6 9.7 0.00 0.00 0.00 47 1014.9
20260509113204 20 102 3.2 9.7 0.00 0.00 0.00 46 1015.1
20260509112705 20 130 1.6 9.7 0.00 0.00 0.00 47 1015.1
20260509111704 20 56 0.0 6.4 0.00 0.00 0.00 48 1015.2
20260509111205 20 113 3.2 6.4 0.00 0.00 0.00 46 1015.2
20260509110703 20 128 1.6 6.4 0.00 0.00 0.00 49 1015.2
20260509105704 20 110 1.6 4.8 0.00 0.00 0.00 48 1015.2
20260509104705 20 164 3.2 8.0 0.00 0.00 0.00 49 1015.4
20260509104204 20 130 1.6 8.0 0.00 0.00 0.00 51 1015.5
20260509103707 20 111 0.0 6.4 0.00 0.00 0.00 52 1015.5
20260509103204 20 110 1.6 8.0 0.00 0.00 0.00 51 1015.6
20260509102704 20 93 1.6 8.0 0.00 0.00 0.00 52 1015.7
20260509102205 20 92 1.6 8.0 0.00 0.00 0.00 53 1015.6
20260509101704 20 78 1.6 9.7 0.00 0.00 0.00 54 1015.8
20260509100704 19 118 1.6 9.7 0.00 0.00 0.00 55 1015.7
20260509100204 20 113 3.2 6.4 0.00 0.00 0.00 54 1015.7
20260509095705 19 97 3.2 4.8 0.00 0.00 0.00 55 1015.8
20260509095204 19 219 1.6 4.8 0.00 0.00 0.00 58 1015.8
20260509094705 19 118 1.6 4.8 0.00 0.00 0.00 57 1015.7
20260509093704 19 79 0.0 4.8 0.00 0.00 0.00 59 1015.7
20260509093204 18 79 1.6 6.4 0.00 0.00 0.00 60 1015.8
20260509092704 18 79 0.0 6.4 0.00 0.00 0.00 62 1015.8
20260509091204 18 125 1.6 4.8 0.00 0.00 0.00 63 1015.8
20260509090704 18 125 0.0 6.4 0.00 0.00 0.00 64 1015.8
20260509090205 17 123 0.0 6.4 0.00 0.00 0.00 64 1015.8
20260509085705 17 123 0.0 6.4 0.00 0.00 0.00 66 1015.8
20260509085205 17 124 0.0 3.2 0.00 0.00 0.00 66 1015.8
20260509084705 17 123 0.0 4.8 0.00 0.00 0.00 67 1015.8
20260509083706 16 123 0.0 4.8 0.00 0.00 0.00 69 1015.9
20260509083205 16 123 0.0 4.8 0.00 0.00 0.00 71 1015.9
20260509082706 16 123 1.6 4.8 0.00 0.00 0.00 71 1016.0
20260509082205 16 123 1.6 4.8 0.00 0.00 0.00 72 1015.9
20260509081714 15 125 0.0 4.8 0.00 0.00 0.00 75 1016.0
20260509081204 15 125 0.0 4.8 0.00 0.00 0.00 76 1016.1
20260509080704 15 125 1.6 4.8 0.00 0.00 0.00 77 1016.1
20260509080204 14 127 0.0 4.8 0.00 0.00 0.00 78 1015.9
20260509075705 14 127 0.0 6.4 0.00 0.00 0.00 80 1015.9
20260509075204 13 128 1.6 6.4 0.00 0.00 0.00 81 1015.9
20260509074704 13 127 1.6 6.4 0.00 0.00 0.00 82 1015.9
20260509074204 13 127 0.0 6.4 0.00 0.00 0.00 83 1015.8
20260509073705 13 130 0.0 3.2 0.00 0.00 0.00 83 1015.8
20260509073205 12 130 1.6 1.6 0.00 0.00 0.00 81 1015.8
20260509072705 12 130 1.6 1.6 0.00 0.00 0.00 79 1015.8
20260509072205 12 133 0.0 1.6 0.00 0.00 0.00 78 1015.8
20260509071704 11 133 0.0 3.2 0.00 0.00 0.00 77 1015.8
20260509071204 11 133 0.0 3.2 0.00 0.00 0.00 76 1015.7
20260509070709 11 133 0.0 1.6 0.00 0.00 0.00 75 1015.8
20260509070204 11 133 0.0 3.2 0.00 0.00 0.00 74 1015.8
20260509065706 11 133 0.0 3.2 0.00 0.00 0.00 73 1015.7
20260509065205 10 133 0.0 3.2 0.00 0.00 0.00 72 1015.7
20260509064705 10 133 0.0 1.6 0.00 0.00 0.00 72 1015.7
20260509064204 10 133 0.0 1.6 0.00 0.00 0.00 71 1015.6
20260509063705 10 133 0.0 1.6 0.00 0.00 0.00 70 1015.6
20260509063203 10 133 0.0 1.6 0.00 0.00 0.00 70 1015.6
20260509062205 10 133 0.0 0.0 0.00 0.00 0.00 70 1015.6
20260509061204 9 133 0.0 0.0 0.00 0.00 0.00 71 1015.7
20260509060704 9 133 0.0 0.0 0.00 0.00 0.00 72 1015.8
20260509060204 8 133 0.0 0.0 0.00 0.00 0.00 72 1015.6
20260509055704 8 133 0.0 0.0 0.00 0.00 0.00 72 1015.6
20260509054704 8 133 0.0 0.0 0.00 0.00 0.00 72 1015.6
20260509054205 8 133 0.0 0.0 0.00 0.00 0.00 72 1015.6
20260509053704 8 133 0.0 0.0 0.00 0.00 0.00 72 1015.7
20260509052706 7 133 0.0 0.0 0.00 0.00 0.00 73 1015.6
20260509052204 7 133 0.0 0.0 0.00 0.00 0.00 74 1015.6
20260509051705 7 133 0.0 0.0 0.00 0.00 0.00 75 1015.6
20260509051204 7 133 0.0 0.0 0.00 0.00 0.00 76 1015.6
20260509050704 6 133 0.0 0.0 0.00 0.00 0.00 77 1015.6
20260509050205 6 133 0.0 0.0 0.00 0.00 0.00 77 1015.6
20260509045703 6 133 0.0 0.0 0.00 0.00 0.00 79 1015.5
20260509044705 6 133 0.0 0.0 0.00 0.00 0.00 80 1015.5
20260509044204 6 133 0.0 0.0 0.00 0.00 0.00 80 1015.6
20260509043704 6 133 0.0 0.0 0.00 0.00 0.00 80 1015.6
20260509043229 6 133 0.0 0.0 0.00 0.00 0.00 80 1015.5
20260509042704 6 133 0.0 0.0 0.00 0.00 0.00 80 1015.7
20260509042205 6 133 0.0 0.0 0.00 0.00 0.00 80 1015.5
20260509041204 6 133 0.0 0.0 0.00 0.00 0.00 81 1015.6
20260509040204 6 133 0.0 0.0 0.00 0.00 0.00 81 1015.6
20260509035704 6 133 0.0 0.0 0.00 0.00 0.00 81 1015.6
20260509035204 6 133 0.0 0.0 0.00 0.00 0.00 81 1015.6
20260509034704 6 133 0.0 0.0 0.00 0.00 0.00 81 1015.6
20260509034205 6 133 0.0 0.0 0.00 0.00 0.00 81 1015.5
20260509033704 7 133 0.0 0.0 0.00 0.00 0.00 81 1015.5
20260509033205 7 133 0.0 0.0 0.00 0.00 0.00 81 1015.5
20260509032705 7 133 0.0 0.0 0.00 0.00 0.00 81 1015.5
20260509032204 7 133 0.0 0.0 0.00 0.00 0.00 82 1015.4
20260509031705 7 133 0.0 0.0 0.00 0.00 0.00 82 1015.5
20260509031204 7 133 0.0 0.0 0.00 0.00 0.00 82 1015.4
20260509030704 7 133 0.0 0.0 0.00 0.00 0.00 82 1015.4
20260509030204 7 133 0.0 0.0 0.00 0.00 0.00 82 1015.4
20260509025704 7 133 0.0 0.0 0.00 0.00 0.00 82 1015.5
20260509025204 7 133 0.0 0.0 0.00 0.00 0.00 82 1015.6
20260509024705 7 133 0.0 0.0 0.00 0.00 0.00 82 1015.6
20260509024204 7 133 0.0 0.0 0.00 0.00 0.00 82 1015.7
20260509023704 7 133 0.0 0.0 0.00 0.00 0.00 82 1015.7
20260509023205 7 133 0.0 0.0 0.00 0.00 0.00 82 1015.6
20260509022204 7 133 0.0 0.0 0.00 0.00 0.00 82 1015.6
20260509021705 7 133 0.0 0.0 0.00 0.00 0.00 82 1015.6
20260509020705 8 133 0.0 0.0 0.00 0.00 0.00 83 1015.6
20260509015205 8 133 0.0 0.0 0.00 0.00 0.00 82 1015.6
20260509014704 8 133 0.0 0.0 0.00 0.00 0.00 82 1015.6
20260509014204 8 133 0.0 0.0 0.00 0.00 0.00 82 1015.7
20260509013705 8 133 0.0 0.0 0.00 0.00 0.00 82 1015.7
20260509013205 8 133 0.0 0.0 0.00 0.00 0.00 83 1015.7
20260509012704 8 133 0.0 0.0 0.00 0.00 0.00 83 1015.8
20260509012205 8 133 0.0 0.0 0.00 0.00 0.00 83 1015.7
20260509011705 8 133 0.0 0.0 0.00 0.00 0.00 83 1015.7
20260509011204 8 133 0.0 0.0 0.00 0.00 0.00 83 1015.7
20260509010204 8 133 0.0 0.0 0.00 0.00 0.00 83 1015.8
20260509005705 8 133 0.0 0.0 0.00 0.00 0.00 83 1015.7
20260509005204 8 133 0.0 0.0 0.00 0.00 0.00 83 1015.7
20260509004704 8 133 0.0 1.6 0.00 0.00 0.00 83 1015.7
20260509004204 8 133 0.0 1.6 0.00 0.00 0.00 83 1015.7
20260509003704 8 133 0.0 0.0 0.00 0.00 0.00 83 1015.8
20260509002204 9 133 0.0 0.0 0.00 0.00 0.00 83 1015.9
20260509001704 9 133 0.0 0.0 0.00 0.00 0.00 83 1015.8
20260509001204 9 133 0.0 0.0 0.00 0.00 0.00 83 1015.8
20260509000704 9 133 0.0 0.0 0.00 0.00 0.00 83 1015.8
20260509000204 9 133 0.0 0.0 0.00 0.00 0.00 83 1015.9
20260508235705 9 133 0.0 0.0 0.00 0.00 0.00 83 1015.8
20260508235204 9 133 0.0 0.0 0.00 0.00 0.00 83 1015.9
20260508234704 9 133 0.0 0.0 0.00 0.00 0.00 83 1015.9
20260508234204 9 133 0.0 0.0 0.00 0.00 0.00 83 1015.9
20260508232703 10 133 0.0 0.0 0.00 0.00 0.00 83 1015.9
20260508232205 10 133 0.0 0.0 0.00 0.00 0.00 83 1015.9
20260508231705 10 133 0.0 0.0 0.00 0.00 0.00 83 1016.1
20260508231204 10 133 0.0 0.0 0.00 0.00 0.00 82 1016.0
20260508230705 10 133 0.0 0.0 0.00 0.00 0.00 82 1016.1
20260508230205 10 133 0.0 0.0 0.00 0.00 0.00 82 1016.0
20260508225204 10 133 0.0 0.0 0.00 0.00 0.00 82 1016.0
20260508224206 10 133 0.0 0.0 0.00 0.00 0.00 81 1016.1
20260508223705 10 133 0.0 1.6 0.00 0.00 0.00 81 1016.1
20260508223204 10 133 0.0 1.6 0.00 0.00 0.00 81 1016.0
20260508222705 10 133 0.0 1.6 0.00 0.00 0.00 81 1016.1
20260508222204 10 133 0.0 1.6 0.00 0.00 0.00 80 1015.9
20260508221704 10 133 0.0 1.6 0.00 0.00 0.00 80 1016.0
20260508221204 11 133 0.0 1.6 0.00 0.00 0.00 79 1015.9
20260508220704 11 133 0.0 0.0 0.00 0.00 0.00 79 1016.0
20260508220203 11 133 0.0 1.6 0.00 0.00 0.00 79 1015.9
20260508214704 11 133 0.0 0.0 0.00 0.00 0.00 78 1015.9
20260508214204 11 133 0.0 0.0 0.00 0.00 0.00 77 1015.9
20260508213704 11 133 0.0 0.0 0.00 0.00 0.00 77 1015.9
20260508213205 11 133 0.0 0.0 0.00 0.00 0.00 76 1015.9
20260508212705 11 133 0.0 0.0 0.00 0.00 0.00 76 1015.8
20260508212206 11 133 0.0 0.0 0.00 0.00 0.00 75 1015.8
20260508211704 11 133 0.0 1.6 0.00 0.00 0.00 75 1015.8
20260508211220 11 133 0.0 1.6 0.00 0.00 0.00 74 1015.7
20260508210704 12 133 0.0 1.6 0.00 0.00 0.00 74 1015.7
20260508210204 12 133 0.0 1.6 0.00 0.00 0.00 74 1015.7
20260508205704 12 133 0.0 1.6 0.00 0.00 0.00 73 1015.7
20260508205205 12 133 0.0 1.6 0.00 0.00 0.00 73 1015.6
20260508204704 12 133 0.0 1.6 0.00 0.00 0.00 73 1015.7
20260508204204 12 133 0.0 1.6 0.00 0.00 0.00 72 1015.6
20260508203705 12 133 0.0 1.6 0.00 0.00 0.00 72 1015.6
20260508203204 12 133 0.0 1.6 0.00 0.00 0.00 72 1015.6
20260508202205 12 134 0.0 3.2 0.00 0.00 0.00 72 1015.5
20260508201705 13 134 0.0 3.2 0.00 0.00 0.00 71 1015.5
20260508200704 13 134 0.0 1.6 0.00 0.00 0.00 70 1015.4
20260508200204 13 134 0.0 1.6 0.00 0.00 0.00 70 1015.4
20260508195704 13 134 0.0 1.6 0.00 0.00 0.00 69 1015.3
20260508195204 13 134 0.0 1.6 0.00 0.00 0.00 69 1015.3
20260508194704 13 134 0.0 3.2 0.00 0.00 0.00 69 1015.2
20260508194205 13 134 0.0 3.2 0.00 0.00 0.00 68 1015.2
20260508193704 13 134 0.0 3.2 0.00 0.00 0.00 67 1015.2
20260508193205 14 134 0.0 3.2 0.00 0.00 0.00 66 1015.0